When you browse on this site, cookies collect data to enhance your experience and personalize the content and advertising you see.
Visit our Privacy Policy to learn more. By continuing to use the site, you agree to this use of cookies and data.
  • In Czech Republic
  • List of Countries
  • For 7 days
  • Water Temperature
  • Weather Map
  • Weather Widgets
  • user-avatar
    Login

    Hourly Weather Fedorovka

    Today, 27 January, Monday

    Time Temperature Precipitation Wind Pressure Humidity
    00:00 -2°C° 0 mm 4 mps 748 mmHg 88%
    01:00 -2°C° 0 mm 4 mps 748 mmHg 89%
    02:00 -3°C° 0 mm 4 mps 748 mmHg 91%
    03:00 -3°C° 0 mm 4 mps 748 mmHg 91%
    04:00 -2°C° 0 mm 3 mps 747 mmHg 91%
    05:00 -2°C° 0 mm 3 mps 747 mmHg 91%
    06:00 -2°C° 0 mm 3 mps 747 mmHg 91%
    07:00 -2°C° 0 mm 3 mps 747 mmHg 91%
    08:00 -2°C° 0 mm 2 mps 747 mmHg 91%
    09:00 -1°C° 0 mm 2 mps 747 mmHg 90%
    10:00 -1°C° 0 mm 3 mps 747 mmHg 88%
    11:00 -1°C° 0 mm 3 mps 747 mmHg 87%
    12:00 0°C° 0 mm 3 mps 747 mmHg 86%
    13:00 0°C° 0 mm 3 mps 747 mmHg 85%
    14:00 0°C° 0 mm 3 mps 747 mmHg 83%
    15:00 0°C° 0.1 mm 3 mps 746 mmHg 88%
    16:00 -1°C° 0.1 mm 2 mps 746 mmHg 92%
    17:00 -1°C° 0.1 mm 2 mps 746 mmHg 97%
    18:00 -1°C° 0.4 mm 2 mps 746 mmHg 97%
    19:00 -1°C° 0.4 mm 2 mps 746 mmHg 97%
    20:00 -1°C° 0.4 mm 3 mps 746 mmHg 98%
    21:00 -1°C° 0.2 mm 2 mps 745 mmHg 97%
    22:00 -1°C° 0.2 mm 2 mps 745 mmHg 97%
    23:00 -1°C° 0.2 mm 2 mps 745 mmHg 96%

    Tomorrow, 28 January, Tuesday

    Time Temperature Precipitation Wind Pressure Humidity
    00:00 -1°C° 0.1 mm 2 mps 745 mmHg 96%
    01:00 -1°C° 0.1 mm 2 mps 745 mmHg 96%
    02:00 -1°C° 0.1 mm 2 mps 745 mmHg 96%
    03:00 -1°C° 0 mm 2 mps 744 mmHg 96%
    04:00 -1°C° 0 mm 2 mps 744 mmHg 96%
    05:00 -1°C° 0 mm 3 mps 744 mmHg 97%
    06:00 -2°C° 0 mm 2 mps 744 mmHg 96%
    07:00 -2°C° 0 mm 2 mps 744 mmHg 96%
    08:00 -2°C° 0 mm 2 mps 744 mmHg 95%
    09:00 -2°C° 0 mm 2 mps 744 mmHg 92%
    10:00 -1°C° 0 mm 2 mps 744 mmHg 90%
    11:00 -1°C° 0 mm 2 mps 744 mmHg 87%
    12:00 +1°C° 0 mm 2 mps 743 mmHg 86%
    13:00 +1°C° 0 mm 2 mps 743 mmHg 85%
    14:00 +1°C° 0 mm 2 mps 743 mmHg 84%
    15:00 +1°C° 0 mm 2 mps 743 mmHg 86%
    16:00 -1°C° 0 mm 2 mps 743 mmHg 88%
    17:00 -2°C° 0 mm 2 mps 743 mmHg 90%
    18:00 -2°C° 0 mm 2 mps 742 mmHg 91%
    19:00 -2°C° 0 mm 2 mps 742 mmHg 91%
    20:00 -2°C° 0 mm 2 mps 742 mmHg 92%
    21:00 -2°C° 0 mm 2 mps 742 mmHg 93%
    22:00 -2°C° 0 mm 3 mps 742 mmHg 94%
    23:00 -1°C° 0 mm 3 mps 742 mmHg 94%

    Day after tomorrow, 29 January, Wednesday

    Time Temperature Precipitation Wind Pressure Humidity
    00:00 -1°C° 0 mm 3 mps 742 mmHg 94%
    01:00 -1°C° 0 mm 3 mps 741 mmHg 94%
    02:00 -1°C° 0 mm 3 mps 741 mmHg 94%
    03:00 -2°C° 0 mm 4 mps 740 mmHg 94%
    04:00 -2°C° 0 mm 4 mps 740 mmHg 94%
    05:00 -2°C° 0 mm 4 mps 739 mmHg 94%
    06:00 -1°C° 0 mm 4 mps 739 mmHg 94%
    07:00 -1°C° 0 mm 5 mps 739 mmHg 94%
    08:00 -1°C° 0 mm 5 mps 738 mmHg 94%
    09:00 0°C° 0 mm 5 mps 738 mmHg 94%
    10:00 0°C° 0 mm 5 mps 738 mmHg 94%
    11:00 +1°C° 0 mm 5 mps 737 mmHg 95%
    12:00 +1°C° 0.2 mm 6 mps 737 mmHg 95%
    13:00 +1°C° 0.2 mm 6 mps 736 mmHg 95%
    14:00 +1°C° 0.2 mm 6 mps 736 mmHg 95%
    15:00 +1°C° 0.3 mm 6 mps 735 mmHg 96%
    16:00 +1°C° 0.3 mm 6 mps 735 mmHg 96%
    17:00 -1°C° 0.3 mm 6 mps 734 mmHg 96%
    18:00 +1°C° 0.4 mm 5 mps 734 mmHg 96%
    19:00 +1°C° 0.4 mm 5 mps 734 mmHg 96%
    20:00 +1°C° 0.4 mm 5 mps 734 mmHg 96%
    21:00 +1°C° 0.4 mm 5 mps 733 mmHg 96%
    22:00 +1°C° 0.4 mm 4 mps 733 mmHg 96%
    23:00 +1°C° 0.4 mm 4 mps 732 mmHg 96%

    30 January, Thursday

    Time Temperature Precipitation Wind Pressure Humidity
    00:00 +1°C° 0.1 mm 4 mps 732 mmHg 96%
    01:00 +1°C° 0.1 mm 4 mps 732 mmHg 96%
    02:00 +1°C° 0.1 mm 4 mps 732 mmHg 96%
    03:00 +1°C° 0.1 mm 4 mps 731 mmHg 96%
    04:00 +1°C° 0.1 mm 4 mps 731 mmHg 96%
    05:00 +1°C° 0.1 mm 4 mps 731 mmHg 96%
    06:00 +1°C° 0.2 mm 4 mps 731 mmHg 96%
    07:00 +1°C° 0.2 mm 4 mps 731 mmHg 96%
    08:00 +1°C° 0.2 mm 4 mps 731 mmHg 96%
    09:00 +1°C° 0.3 mm 4 mps 731 mmHg 96%
    10:00 +1°C° 0.3 mm 4 mps 731 mmHg 96%
    11:00 +1°C° 0.3 mm 4 mps 731 mmHg 96%
    12:00 +1°C° 0.3 mm 4 mps 731 mmHg 96%
    13:00 +1°C° 0.3 mm 4 mps 731 mmHg 97%
    14:00 +1°C° 0.3 mm 4 mps 731 mmHg 97%
    15:00 +1°C° 0.5 mm 5 mps 732 mmHg 97%
    16:00 +1°C° 0.5 mm 5 mps 732 mmHg 97%
    17:00 +1°C° 0.5 mm 5 mps 733 mmHg 97%
    18:00 0°C° 0.4 mm 5 mps 733 mmHg 97%
    19:00 0°C° 0.4 mm 5 mps 734 mmHg 97%
    20:00 0°C° 0.4 mm 4 mps 734 mmHg 97%
    21:00 0°C° 0.2 mm 4 mps 735 mmHg 97%
    22:00 -1°C° 0.2 mm 4 mps 735 mmHg 97%
    23:00 -1°C° 0.2 mm 4 mps 735 mmHg 97%

    31 January, Friday

    Time Temperature Precipitation Wind Pressure Humidity
    00:00 -1°C° 0.2 mm 4 mps 736 mmHg 97%
    01:00 -1°C° 0.2 mm 4 mps 736 mmHg 97%
    02:00 0°C° 0.2 mm 3 mps 736 mmHg 97%
    03:00 0°C° 0.3 mm 3 mps 737 mmHg 97%
    04:00 -1°C° 0.3 mm 4 mps 737 mmHg 97%
    05:00 -1°C° 0.3 mm 4 mps 737 mmHg 97%
    06:00 -1°C° 0.2 mm 4 mps 737 mmHg 97%
    07:00 -1°C° 0.2 mm 4 mps 738 mmHg 97%
    08:00 -1°C° 0.2 mm 4 mps 738 mmHg 97%
    09:00 -1°C° 0.1 mm 4 mps 738 mmHg 94%
    10:00 -1°C° 0.1 mm 4 mps 738 mmHg 92%
    11:00 -1°C° 0.1 mm 4 mps 738 mmHg 90%
    12:00 0°C° 0 mm 4 mps 738 mmHg 86%
    13:00 +1°C° 0 mm 3 mps 738 mmHg 83%
    14:00 +1°C° 0 mm 3 mps 738 mmHg 80%
    15:00 +1°C° 0 mm 2 mps 738 mmHg 83%
    16:00 +1°C° 0 mm 2 mps 738 mmHg 85%
    17:00 -1°C° 0 mm 2 mps 738 mmHg 88%
    18:00 -1°C° 0 mm 2 mps 738 mmHg 90%
    19:00 -1°C° 0 mm 2 mps 738 mmHg 93%
    20:00 -1°C° 0 mm 2 mps 738 mmHg 95%
    21:00 -1°C° 0.1 mm 2 mps 738 mmHg 96%
    22:00 -1°C° 0.1 mm 2 mps 738 mmHg 97%
    23:00 -1°C° 0.1 mm 2 mps 739 mmHg 98%

    1 February, Saturday

    Time Temperature Precipitation Wind Pressure Humidity
    00:00 +1°C° 0 mm 1 mps 739 mmHg 98%
    01:00 +2°C° 0 mm 1 mps 740 mmHg 97%
    02:00 +2°C° 0 mm 1 mps 740 mmHg 97%
    03:00 +2°C° 0 mm 1 mps 740 mmHg 97%
    04:00 +2°C° 0 mm 1 mps 741 mmHg 98%
    05:00 +2°C° 0 mm 1 mps 741 mmHg 98%
    06:00 +2°C° 0 mm 1 mps 741 mmHg 98%
    07:00 +2°C° 0 mm 1 mps 742 mmHg 98%
    08:00 +2°C° 0 mm 1 mps 743 mmHg 98%
    09:00 +1°C° 0 mm 2 mps 743 mmHg 97%
    10:00 +2°C° 0 mm 2 mps 743 mmHg 96%
    11:00 +2°C° 0 mm 2 mps 743 mmHg 95%
    12:00 +2°C° 0 mm 2 mps 743 mmHg 95%
    13:00 +1°C° 0 mm 3 mps 743 mmHg 96%
    14:00 +1°C° 0 mm 3 mps 743 mmHg 96%
    15:00 +1°C° 0 mm 3 mps 744 mmHg 96%
    16:00 +1°C° 0 mm 3 mps 744 mmHg 96%
    17:00 +2°C° 0 mm 2 mps 744 mmHg 97%
    18:00 +1°C° 0 mm 3 mps 744 mmHg 96%
    19:00 +1°C° 0 mm 3 mps 744 mmHg 95%
    20:00 +1°C° 0 mm 3 mps 743 mmHg 94%
    21:00 -1°C° 0 mm 4 mps 743 mmHg 94%
    22:00 -1°C° 0 mm 4 mps 743 mmHg 93%
    23:00 -1°C° 0 mm 5 mps 743 mmHg 92%
    Show more